| time (UTC) | temp C | wind direction | speed KPH | gust KPH | rain 1hr cm | rain 24hr cm | rain mn cm | humidity % | barometer mb |
| 20260504044605 | 13 | 244 | 1.6 | 6.4 | 0.00 | 0.25 | 0.25 | 48 | 1005.2 |
| 20260504043057 | 13 | 240 | 0.0 | 8.0 | 0.00 | 0.25 | 0.25 | 47 | 1005.0 |
| 20260504041608 | 13 | 259 | 0.0 | 6.4 | 0.00 | 0.25 | 0.25 | 47 | 1005.0 |
| 20260504034614 | 15 | 259 | 1.6 | 9.7 | 0.00 | 0.25 | 0.25 | 45 | 1005.0 |
| 20260504033109 | 14 | 272 | 0.0 | 1.6 | 0.00 | 0.25 | 0.25 | 47 | 1005.1 |
| 20260504031600 | 14 | 272 | 1.6 | 6.4 | 0.00 | 0.25 | 0.25 | 48 | 1005.1 |
| 20260504030054 | 15 | 272 | 6.4 | 11.3 | 0.00 | 0.25 | 0.25 | 47 | 1005.0 |
| 20260504024552 | 14 | 275 | 4.8 | 11.3 | 0.00 | 0.25 | 0.25 | 48 | 1005.0 |
| 20260504023057 | 15 | 277 | 3.2 | 9.7 | 0.00 | 0.25 | 0.25 | 47 | 1004.9 |
| 20260504021554 | 15 | 284 | 3.2 | 6.4 | 0.00 | 0.25 | 0.25 | 48 | 1004.8 |
| 20260504020051 | 15 | 284 | 9.7 | 14.5 | 0.00 | 0.25 | 0.25 | 48 | 1004.7 |
| 20260504014606 | 15 | 292 | 11.3 | 14.5 | 0.00 | 0.25 | 0.25 | 47 | 1004.6 |
| 20260504013054 | 16 | 279 | 12.9 | 17.7 | 0.00 | 0.25 | 0.25 | 45 | 1004.4 |
| 20260504011558 | 17 | 268 | 14.5 | 17.7 | 0.00 | 0.25 | 0.25 | 42 | 1004.1 |
| 20260504010059 | 18 | 273 | 11.3 | 17.7 | 0.00 | 0.25 | 0.25 | 42 | 1004.2 |
| 20260504004555 | 18 | 267 | 8.0 | 16.1 | 0.00 | 0.25 | 0.25 | 41 | 1004.0 |
| 20260504003059 | 20 | 273 | 4.8 | 11.3 | 0.00 | 0.25 | 0.25 | 42 | 1003.9 |
| 20260504001554 | 20 | 274 | 8.0 | 12.9 | 0.00 | 0.25 | 0.25 | 40 | 1003.8 |
| 20260504000055 | 21 | 269 | 11.3 | 20.9 | 0.00 | 0.25 | 0.25 | 38 | 1003.9 |
| 20260503234556 | 21 | 285 | 12.9 | 24.1 | 0.00 | 0.25 | 0.25 | 38 | 1004.0 |
| 20260503233054 | 21 | 271 | 1.6 | 22.5 | 0.00 | 0.25 | 0.25 | 37 | 1003.9 |
| 20260503231555 | 22 | 244 | 12.9 | 19.3 | 0.00 | 0.25 | 0.25 | 37 | 1004.0 |
| 20260503230058 | 22 | 275 | 11.3 | 19.3 | 0.00 | 0.25 | 0.25 | 38 | 1004.0 |
| 20260503224551 | 21 | 240 | 8.0 | 17.7 | 0.00 | 0.25 | 0.25 | 40 | 1004.1 |
| 20260503223057 | 22 | 200 | 19.3 | 29.0 | 0.00 | 0.25 | 0.25 | 37 | 1004.1 |
| 20260503221555 | 22 | 233 | 20.9 | 29.0 | 0.00 | 0.25 | 0.25 | 37 | 1004.3 |
| 20260503220059 | 22 | 195 | 16.1 | 32.2 | 0.00 | 0.25 | 0.25 | 37 | 1004.3 |
| 20260503214555 | 22 | 204 | 22.5 | 37.0 | 0.00 | 0.25 | 0.25 | 38 | 1004.4 |
| 20260503213110 | 21 | 210 | 19.3 | 30.6 | 0.00 | 0.25 | 0.25 | 38 | 1004.4 |
| 20260503211557 | 21 | 219 | 20.9 | 37.0 | 0.00 | 0.25 | 0.25 | 39 | 1004.5 |
| 20260503210105 | 21 | 207 | 16.1 | 33.8 | 0.00 | 0.25 | 0.25 | 41 | 1004.8 |
| 20260503204601 | 21 | 273 | 19.3 | 33.8 | 0.00 | 0.25 | 0.25 | 40 | 1005.0 |
| 20260503203107 | 20 | 205 | 24.1 | 37.0 | 0.00 | 0.25 | 0.25 | 40 | 1005.3 |
| 20260503201606 | 20 | 264 | 24.1 | 37.0 | 0.00 | 0.25 | 0.25 | 40 | 1005.4 |
| 20260503200105 | 20 | 216 | 17.7 | 35.4 | 0.00 | 0.25 | 0.25 | 42 | 1005.5 |
| 20260503194558 | 20 | 223 | 24.1 | 38.6 | 0.00 | 0.25 | 0.25 | 42 | 1005.8 |
| 20260503193059 | 19 | 225 | 17.7 | 33.8 | 0.00 | 0.25 | 0.25 | 43 | 1005.9 |
| 20260503191602 | 20 | 227 | 24.1 | 38.6 | 0.00 | 0.25 | 0.25 | 41 | 1006.1 |
| 20260503190100 | 19 | 214 | 30.6 | 56.3 | 0.00 | 0.25 | 0.25 | 42 | 1006.4 |
| 20260503184606 | 19 | 217 | 25.7 | 40.2 | 0.00 | 0.25 | 0.25 | 43 | 1006.5 |
| 20260503183108 | 18 | 219 | 29.0 | 51.5 | 0.00 | 0.25 | 0.25 | 45 | 1006.7 |
| 20260503181607 | 18 | 204 | 25.7 | 45.1 | 0.05 | 0.25 | 0.25 | 46 | 1007.0 |
| 20260503180057 | 17 | 190 | 29.0 | 43.5 | 0.05 | 0.25 | 0.25 | 47 | 1007.0 |
| 20260503174556 | 17 | 191 | 32.2 | 53.1 | 0.05 | 0.25 | 0.25 | 48 | 1007.2 |
| 20260503173059 | 17 | 202 | 37.0 | 46.7 | 0.05 | 0.25 | 0.25 | 47 | 1007.5 |
| 20260503171555 | 17 | 211 | 33.8 | 61.2 | 0.00 | 0.20 | 0.20 | 50 | 1007.5 |
| 20260503110108 | 7 | 202 | 16.1 | 20.9 | 0.00 | 0.00 | 0.00 | 64 | 1011.6 |
| 20260503081619 | 7 | 198 | 19.3 | 29.0 | 0.00 | 0.00 | 0.00 | 57 | 1012.1 |
| 20260503080111 | 7 | 200 | 20.9 | 29.0 | 0.00 | 0.00 | 0.00 | 56 | 1012.2 |
| 20260503071554 | 7 | 202 | 19.3 | 27.4 | 0.00 | 0.00 | 0.00 | 56 | 1012.4 |